Year,Month,Day,Hour,Minute,Value (Times are PST for windgust in km/hr)
2012,12,08,00,00,4.80
2012,12,08,00,01,8.10
2012,12,08,00,02,4.80
2012,12,08,00,03,4.80
2012,12,08,00,04,4.80
2012,12,08,00,05,6.40
2012,12,08,00,06,4.80
2012,12,08,00,07,3.20
2012,12,08,00,08,3.20
2012,12,08,00,09,3.20
2012,12,08,00,10,3.20
2012,12,08,00,11,4.80
2012,12,08,00,12,4.80
2012,12,08,00,13,3.20
2012,12,08,00,14,3.20
2012,12,08,00,15,3.20
2012,12,08,00,17,4.80
2012,12,08,00,18,3.20
2012,12,08,00,19,1.60
2012,12,08,00,20,6.40
2012,12,08,00,21,9.60
2012,12,08,00,22,6.40
2012,12,08,00,23,4.80
2012,12,08,00,24,4.80
2012,12,08,00,25,6.40
2012,12,08,00,26,4.80
2012,12,08,00,27,3.20
2012,12,08,00,28,8.10
2012,12,08,00,29,19.30
2012,12,08,00,30,16.10
2012,12,08,00,31,17.70
2012,12,08,00,32,9.60
2012,12,08,00,33,9.60
2012,12,08,00,34,6.40
2012,12,08,00,35,16.10
2012,12,08,00,36,11.30
2012,12,08,00,37,8.10
2012,12,08,00,38,9.60
2012,12,08,00,39,8.10
2012,12,08,00,40,4.80
2012,12,08,00,41,19.30
2012,12,08,00,42,11.30
2012,12,08,00,43,11.30
2012,12,08,00,44,6.40
2012,12,08,00,45,6.40
2012,12,08,00,46,4.80
2012,12,08,00,47,4.80
2012,12,08,00,48,11.30
2012,12,08,00,49,8.10
2012,12,08,00,50,6.40
2012,12,08,00,51,4.80
2012,12,08,00,52,8.10
2012,12,08,00,53,4.80
2012,12,08,00,54,4.80
2012,12,08,00,55,3.20
2012,12,08,00,56,4.80
2012,12,08,00,57,4.80
2012,12,08,00,58,3.20
2012,12,08,00,59,6.40
2012,12,08,01,00,3.20
2012,12,08,01,01,3.20
2012,12,08,01,04,1.60
2012,12,08,01,06,1.60
2012,12,08,01,07,1.60
2012,12,08,01,09,1.60
2012,12,08,01,10,3.20
2012,12,08,01,12,8.10
2012,12,08,01,13,6.40
2012,12,08,01,14,6.40
2012,12,08,01,15,12.90
2012,12,08,01,16,6.40
2012,12,08,01,17,6.40
2012,12,08,01,18,3.20
2012,12,08,01,19,1.60
2012,12,08,01,20,4.80
2012,12,08,01,21,6.40
2012,12,08,01,22,3.20
2012,12,08,01,23,3.20
2012,12,08,01,24,1.60
2012,12,08,01,25,4.80
2012,12,08,01,26,3.20
2012,12,08,01,27,1.60
2012,12,08,01,28,3.20
2012,12,08,01,29,4.80
2012,12,08,01,30,3.20
2012,12,08,01,31,3.20
2012,12,08,01,32,3.20
2012,12,08,01,33,3.20
2012,12,08,01,34,3.20
2012,12,08,01,35,4.80
2012,12,08,01,36,4.80
2012,12,08,01,37,4.80
2012,12,08,01,38,1.60
2012,12,08,01,39,3.20
2012,12,08,01,40,1.60
2012,12,08,01,41,3.20
2012,12,08,01,42,1.60
2012,12,08,01,43,4.80
2012,12,08,01,44,4.80
2012,12,08,01,46,1.60
2012,12,08,01,47,1.60
2012,12,08,01,48,3.20
2012,12,08,01,49,3.20
2012,12,08,01,50,3.20
2012,12,08,01,57,3.20
2012,12,08,01,58,1.60
2012,12,08,01,59,1.60
2012,12,08,02,00,4.80
2012,12,08,02,01,1.60
2012,12,08,02,03,1.60
2012,12,08,02,04,4.80
2012,12,08,02,05,4.80
2012,12,08,02,06,6.40
2012,12,08,02,07,4.80
2012,12,08,02,08,4.80
2012,12,08,02,09,3.20
2012,12,08,02,10,3.20
2012,12,08,02,11,6.40
2012,12,08,02,12,4.80
2012,12,08,02,13,4.80
2012,12,08,02,14,4.80
2012,12,08,02,15,4.80
2012,12,08,02,16,4.80
2012,12,08,02,17,4.80
2012,12,08,02,18,6.40
2012,12,08,02,19,1.60
2012,12,08,02,20,1.60
2012,12,08,02,24,4.80
2012,12,08,02,25,4.80
2012,12,08,02,26,1.60
2012,12,08,02,27,4.80
2012,12,08,02,28,4.80
2012,12,08,02,29,3.20
2012,12,08,02,30,3.20
2012,12,08,02,31,1.60
2012,12,08,02,32,1.60
2012,12,08,02,33,3.20
2012,12,08,02,35,3.20
2012,12,08,02,36,1.60
2012,12,08,02,38,1.60
2012,12,08,02,39,1.60
2012,12,08,02,40,3.20
2012,12,08,02,41,3.20
2012,12,08,02,42,3.20
2012,12,08,02,43,3.20
2012,12,08,02,44,3.20
2012,12,08,02,45,4.80
2012,12,08,02,46,4.80
2012,12,08,02,47,3.20
2012,12,08,02,48,3.20
2012,12,08,02,50,3.20
2012,12,08,02,51,4.80
2012,12,08,02,52,3.20
2012,12,08,02,53,3.20
2012,12,08,02,54,4.80
2012,12,08,02,55,6.40
2012,12,08,02,56,6.40
2012,12,08,02,57,6.40
2012,12,08,02,58,4.80
2012,12,08,02,59,4.80
2012,12,08,03,00,4.80
2012,12,08,03,01,3.20
2012,12,08,03,02,4.80
2012,12,08,03,03,4.80
2012,12,08,03,04,3.20
2012,12,08,03,05,4.80
2012,12,08,03,06,4.80
2012,12,08,03,07,3.20
2012,12,08,03,08,3.20
2012,12,08,03,09,3.20
2012,12,08,03,10,4.80
2012,12,08,03,11,4.80
2012,12,08,03,12,4.80
2012,12,08,03,13,6.40
2012,12,08,03,14,4.80
2012,12,08,03,15,6.40
2012,12,08,03,16,4.80
2012,12,08,03,17,4.80
2012,12,08,03,18,8.10
2012,12,08,03,19,4.80
2012,12,08,03,20,4.80
2012,12,08,03,21,3.20
2012,12,08,03,22,3.20
2012,12,08,03,23,4.80
2012,12,08,03,24,3.20
2012,12,08,03,25,3.20
2012,12,08,03,26,3.20
2012,12,08,03,27,3.20
2012,12,08,03,28,3.20
2012,12,08,03,29,4.80
2012,12,08,03,30,1.60
2012,12,08,03,31,3.20
2012,12,08,03,32,1.60
2012,12,08,03,33,1.60
2012,12,08,03,36,3.20
2012,12,08,03,37,1.60
2012,12,08,03,39,1.60
2012,12,08,03,40,1.60
2012,12,08,03,41,3.20
2012,12,08,03,42,1.60
2012,12,08,03,47,3.20
2012,12,08,03,48,1.60
2012,12,08,03,50,3.20
2012,12,08,03,55,3.20
2012,12,08,03,56,3.20
2012,12,08,03,57,1.60
2012,12,08,03,58,1.60
2012,12,08,04,02,1.60
2012,12,08,04,03,4.80
2012,12,08,04,04,3.20
2012,12,08,04,05,4.80
2012,12,08,04,06,3.20
2012,12,08,04,07,3.20
2012,12,08,04,08,4.80
2012,12,08,04,09,1.60
2012,12,08,04,10,6.40
2012,12,08,04,11,1.60
2012,12,08,04,12,1.60
2012,12,08,04,14,3.20
2012,12,08,04,15,4.80
2012,12,08,04,16,4.80
2012,12,08,04,18,1.60
2012,12,08,04,19,4.80
2012,12,08,04,20,3.20
2012,12,08,04,21,4.80
2012,12,08,04,22,4.80
2012,12,08,04,23,1.60
2012,12,08,04,24,1.60
2012,12,08,04,25,1.60
2012,12,08,04,28,1.60
2012,12,08,04,29,4.80
2012,12,08,04,30,4.80
2012,12,08,04,31,8.10
2012,12,08,04,32,4.80
2012,12,08,04,33,3.20
2012,12,08,04,34,1.60
2012,12,08,04,35,3.20
2012,12,08,04,36,4.80
2012,12,08,04,37,4.80
2012,12,08,04,38,8.10
2012,12,08,04,39,9.60
2012,12,08,04,40,6.40
2012,12,08,04,41,4.80
2012,12,08,04,42,4.80
2012,12,08,04,43,12.90
2012,12,08,04,44,14.50
2012,12,08,04,45,11.30
2012,12,08,04,46,12.90
2012,12,08,04,47,4.80
2012,12,08,04,48,6.40
2012,12,08,04,49,4.80
2012,12,08,04,50,6.40
2012,12,08,04,51,6.40
2012,12,08,04,52,6.40
2012,12,08,04,53,4.80
2012,12,08,04,54,8.10
2012,12,08,04,55,6.40
2012,12,08,04,56,8.10
2012,12,08,04,57,4.80
2012,12,08,04,58,3.20
2012,12,08,04,59,6.40
2012,12,08,05,00,8.10
2012,12,08,05,01,8.10
2012,12,08,05,02,3.20
2012,12,08,05,03,8.10
2012,12,08,05,04,8.10
2012,12,08,05,05,6.40
2012,12,08,05,06,6.40
2012,12,08,05,07,8.10
2012,12,08,05,08,8.10
2012,12,08,05,09,4.80
2012,12,08,05,10,6.40
2012,12,08,05,11,4.80
2012,12,08,05,12,6.40
2012,12,08,05,13,4.80
2012,12,08,05,14,6.40
2012,12,08,05,15,4.80
2012,12,08,05,16,4.80
2012,12,08,05,17,6.40
2012,12,08,05,18,4.80
2012,12,08,05,19,3.20
2012,12,08,05,20,4.80
2012,12,08,05,21,8.10
2012,12,08,05,22,8.10
2012,12,08,05,23,8.10
2012,12,08,05,24,8.10
2012,12,08,05,25,8.10
2012,12,08,05,26,8.10
2012,12,08,05,27,6.40
2012,12,08,05,28,6.40
2012,12,08,05,29,8.10
2012,12,08,05,30,6.40
2012,12,08,05,31,6.40
2012,12,08,05,32,4.80
2012,12,08,05,33,4.80
2012,12,08,05,34,6.40
2012,12,08,05,35,6.40
2012,12,08,05,36,4.80
2012,12,08,05,37,8.10
2012,12,08,05,38,6.40
2012,12,08,05,39,9.60
2012,12,08,05,40,11.30
2012,12,08,05,41,4.80
2012,12,08,05,42,6.40
2012,12,08,05,43,4.80
2012,12,08,05,44,4.80
2012,12,08,05,45,8.10
2012,12,08,05,46,8.10
2012,12,08,05,47,6.40
2012,12,08,05,48,6.40
2012,12,08,05,49,6.40
2012,12,08,05,50,6.40
2012,12,08,05,51,6.40
2012,12,08,05,52,6.40
2012,12,08,05,53,6.40
2012,12,08,05,54,4.80
2012,12,08,05,55,6.40
2012,12,08,05,56,4.80
2012,12,08,05,57,4.80
2012,12,08,05,58,4.80
2012,12,08,05,59,4.80
2012,12,08,06,00,4.80
2012,12,08,06,01,4.80
2012,12,08,06,02,3.20
2012,12,08,06,03,4.80
2012,12,08,06,04,4.80
2012,12,08,06,05,4.80
2012,12,08,06,06,4.80
2012,12,08,06,07,6.40
2012,12,08,06,08,4.80
2012,12,08,06,09,6.40
2012,12,08,06,10,6.40
2012,12,08,06,11,4.80
2012,12,08,06,12,3.20
2012,12,08,06,13,4.80
2012,12,08,06,14,4.80
2012,12,08,06,15,3.20
2012,12,08,06,16,4.80
2012,12,08,06,17,4.80
2012,12,08,06,18,3.20
2012,12,08,06,19,3.20
2012,12,08,06,20,3.20
2012,12,08,06,21,3.20
2012,12,08,06,22,4.80
2012,12,08,06,23,4.80
2012,12,08,06,24,4.80
2012,12,08,06,25,4.80
2012,12,08,06,26,6.40
2012,12,08,06,27,4.80
2012,12,08,06,28,4.80
2012,12,08,06,29,4.80
2012,12,08,06,30,3.20
2012,12,08,06,31,3.20
2012,12,08,06,32,3.20
2012,12,08,06,33,4.80
2012,12,08,06,34,4.80
2012,12,08,06,35,6.40
2012,12,08,06,36,6.40
2012,12,08,06,37,4.80
2012,12,08,06,38,6.40
2012,12,08,06,39,4.80
2012,12,08,06,40,4.80
2012,12,08,06,41,4.80
2012,12,08,06,42,6.40
2012,12,08,06,43,4.80
2012,12,08,06,44,6.40
2012,12,08,06,45,6.40
2012,12,08,06,46,4.80
2012,12,08,06,47,4.80
2012,12,08,06,48,6.40
2012,12,08,06,49,6.40
2012,12,08,06,50,6.40
2012,12,08,06,51,6.40
2012,12,08,06,52,6.40
2012,12,08,06,53,4.80
2012,12,08,06,54,6.40
2012,12,08,06,55,6.40
2012,12,08,06,56,4.80
2012,12,08,06,57,4.80
2012,12,08,06,58,4.80
2012,12,08,06,59,4.80
2012,12,08,07,00,4.80
2012,12,08,07,01,4.80
2012,12,08,07,02,6.40
2012,12,08,07,03,8.10
2012,12,08,07,04,8.10
2012,12,08,07,05,8.10
2012,12,08,07,06,6.40
2012,12,08,07,07,4.80
2012,12,08,07,08,6.40
2012,12,08,07,09,6.40
2012,12,08,07,10,6.40
2012,12,08,07,11,4.80
2012,12,08,07,12,8.10
2012,12,08,07,13,6.40
2012,12,08,07,14,6.40
2012,12,08,07,15,6.40
2012,12,08,07,16,6.40
2012,12,08,07,17,8.10
2012,12,08,07,18,8.10
2012,12,08,07,19,8.10
2012,12,08,07,20,8.10
2012,12,08,07,21,6.40
2012,12,08,07,22,6.40
2012,12,08,07,23,8.10
2012,12,08,07,24,8.10
2012,12,08,07,25,8.10
2012,12,08,07,26,6.40
2012,12,08,07,27,6.40
2012,12,08,07,28,8.10
2012,12,08,07,29,6.40
2012,12,08,07,30,6.40
2012,12,08,07,31,4.80
2012,12,08,07,32,6.40
2012,12,08,07,33,6.40
2012,12,08,07,34,8.10
2012,12,08,07,35,6.40
2012,12,08,07,36,6.40
2012,12,08,07,37,6.40
2012,12,08,07,38,8.10
2012,12,08,07,39,6.40
2012,12,08,07,40,6.40
2012,12,08,07,41,4.80
2012,12,08,07,42,6.40
2012,12,08,07,43,6.40
2012,12,08,07,44,8.10
2012,12,08,07,45,6.40
2012,12,08,07,46,8.10
2012,12,08,07,47,8.10
2012,12,08,07,48,8.10
2012,12,08,07,49,9.60
2012,12,08,07,50,9.60
2012,12,08,07,51,8.10
2012,12,08,07,52,8.10
2012,12,08,07,53,8.10
2012,12,08,07,54,8.10
2012,12,08,07,55,6.40
2012,12,08,07,56,6.40
2012,12,08,07,57,6.40
2012,12,08,07,58,4.80
2012,12,08,07,59,3.20
2012,12,08,08,00,3.20
2012,12,08,08,01,6.40
2012,12,08,08,02,8.10
2012,12,08,08,03,8.10
2012,12,08,08,04,6.40
2012,12,08,08,05,6.40
2012,12,08,08,06,6.40
2012,12,08,08,07,4.80
2012,12,08,08,08,8.10
2012,12,08,08,09,6.40
2012,12,08,08,10,6.40
2012,12,08,08,11,6.40
2012,12,08,08,12,6.40
2012,12,08,08,13,4.80
2012,12,08,08,14,6.40
2012,12,08,08,15,4.80
2012,12,08,08,16,6.40
2012,12,08,08,17,6.40
2012,12,08,08,18,6.40
2012,12,08,08,19,6.40
2012,12,08,08,20,4.80
2012,12,08,08,21,3.20
2012,12,08,08,22,4.80
2012,12,08,08,23,4.80
2012,12,08,08,24,4.80
2012,12,08,08,25,6.40
2012,12,08,08,26,6.40
2012,12,08,08,27,6.40
2012,12,08,08,28,8.10
2012,12,08,08,29,6.40
2012,12,08,08,30,8.10
2012,12,08,08,31,8.10
2012,12,08,08,32,4.80
2012,12,08,08,33,8.10
2012,12,08,08,34,4.80
2012,12,08,08,35,6.40
2012,12,08,08,36,4.80
2012,12,08,08,37,8.10
2012,12,08,08,38,6.40
2012,12,08,08,39,6.40
2012,12,08,08,40,6.40
2012,12,08,08,41,6.40
2012,12,08,08,42,6.40
2012,12,08,08,43,6.40
2012,12,08,08,44,6.40
2012,12,08,08,45,8.10
2012,12,08,08,46,8.10
2012,12,08,08,47,4.80
2012,12,08,08,48,6.40
2012,12,08,08,49,8.10
2012,12,08,08,50,8.10
2012,12,08,08,51,6.40
2012,12,08,08,52,6.40
2012,12,08,08,53,6.40
2012,12,08,08,54,4.80
2012,12,08,08,55,8.10
2012,12,08,08,56,4.80
2012,12,08,08,57,6.40
2012,12,08,08,58,6.40
2012,12,08,08,59,4.80
2012,12,08,09,00,6.40
2012,12,08,09,01,6.40
2012,12,08,09,02,6.40
2012,12,08,09,03,4.80
2012,12,08,09,04,6.40
2012,12,08,09,05,6.40
2012,12,08,09,06,6.40
2012,12,08,09,07,6.40
2012,12,08,09,08,6.40
2012,12,08,09,09,8.10
2012,12,08,09,10,8.10
2012,12,08,09,11,6.40
2012,12,08,09,12,8.10
2012,12,08,09,13,6.40
2012,12,08,09,14,8.10
2012,12,08,09,15,4.80
2012,12,08,09,16,4.80
2012,12,08,09,17,4.80
2012,12,08,09,18,3.20
2012,12,08,09,19,3.20
2012,12,08,09,20,3.20
2012,12,08,09,21,3.20
2012,12,08,09,22,3.20
2012,12,08,09,23,1.60
2012,12,08,09,24,3.20
2012,12,08,09,25,1.60
2012,12,08,09,26,1.60
2012,12,08,09,28,3.20
2012,12,08,09,29,3.20
2012,12,08,09,30,3.20
2012,12,08,09,31,1.60
2012,12,08,09,32,1.60
2012,12,08,09,33,1.60
2012,12,08,09,34,1.60
2012,12,08,09,35,1.60
2012,12,08,09,37,1.60
2012,12,08,09,38,3.20
2012,12,08,09,39,1.60
2012,12,08,09,40,3.20
2012,12,08,09,41,4.80
2012,12,08,09,42,4.80
2012,12,08,09,43,4.80
2012,12,08,09,44,4.80
2012,12,08,09,45,6.40
2012,12,08,09,46,8.10
2012,12,08,09,47,6.40
2012,12,08,09,48,6.40
2012,12,08,09,49,6.40
2012,12,08,09,50,6.40
2012,12,08,09,51,6.40
2012,12,08,09,52,6.40
2012,12,08,09,53,6.40
2012,12,08,09,54,6.40
2012,12,08,09,55,4.80
2012,12,08,09,56,8.10
2012,12,08,09,57,4.80
2012,12,08,09,58,9.60
2012,12,08,09,59,6.40
2012,12,08,10,00,6.40
2012,12,08,10,01,6.40
2012,12,08,10,02,6.40
2012,12,08,10,03,4.80
2012,12,08,10,04,6.40
2012,12,08,10,05,6.40
2012,12,08,10,06,8.10
2012,12,08,10,07,8.10
2012,12,08,10,08,4.80
2012,12,08,10,09,4.80
2012,12,08,10,10,4.80
2012,12,08,10,11,6.40
2012,12,08,10,12,3.20
2012,12,08,10,13,3.20
2012,12,08,10,14,4.80
2012,12,08,10,15,4.80
2012,12,08,10,16,6.40
2012,12,08,10,17,3.20
2012,12,08,10,18,1.60
2012,12,08,10,19,3.20
2012,12,08,10,20,4.80
2012,12,08,10,21,6.40
2012,12,08,10,22,6.40
2012,12,08,10,23,6.40
2012,12,08,10,24,6.40
2012,12,08,10,25,4.80
2012,12,08,10,26,3.20
2012,12,08,10,27,4.80
2012,12,08,10,28,8.10
2012,12,08,10,29,6.40
2012,12,08,10,30,3.20
2012,12,08,10,31,4.80
2012,12,08,10,32,4.80
2012,12,08,10,33,6.40
2012,12,08,10,34,6.40
2012,12,08,10,35,6.40
2012,12,08,10,36,4.80
2012,12,08,10,37,6.40
2012,12,08,10,38,6.40
2012,12,08,10,39,9.60
2012,12,08,10,40,6.40
2012,12,08,10,41,8.10
2012,12,08,10,42,6.40
2012,12,08,10,43,3.20
2012,12,08,10,44,6.40
2012,12,08,10,45,6.40
2012,12,08,10,46,8.10
2012,12,08,10,47,6.40
2012,12,08,10,48,6.40
2012,12,08,10,49,3.20
2012,12,08,10,50,6.40
2012,12,08,10,51,6.40
2012,12,08,10,52,3.20
2012,12,08,10,53,8.10
2012,12,08,10,54,8.10
2012,12,08,10,55,8.10
2012,12,08,10,56,4.80
2012,12,08,10,57,4.80
2012,12,08,10,58,8.10
2012,12,08,10,59,8.10
2012,12,08,11,00,6.40
2012,12,08,11,01,8.10
2012,12,08,11,02,11.30
2012,12,08,11,03,8.10
2012,12,08,11,04,6.40
2012,12,08,11,05,6.40
2012,12,08,11,06,8.10
2012,12,08,11,07,9.60
2012,12,08,11,08,6.40
2012,12,08,11,09,8.10
2012,12,08,11,10,6.40
2012,12,08,11,11,4.80
2012,12,08,11,12,6.40
2012,12,08,11,13,3.20
2012,12,08,11,14,4.80
2012,12,08,11,15,3.20
2012,12,08,11,16,3.20
2012,12,08,11,17,6.40
2012,12,08,11,18,6.40
2012,12,08,11,19,6.40
2012,12,08,11,20,8.10
2012,12,08,11,21,11.30
2012,12,08,11,22,6.40
2012,12,08,11,23,6.40
2012,12,08,11,24,8.10
2012,12,08,11,25,4.80
2012,12,08,11,26,8.10
2012,12,08,11,27,6.40
2012,12,08,11,28,9.60
2012,12,08,11,29,9.60
2012,12,08,11,30,8.10
2012,12,08,11,31,4.80
2012,12,08,11,32,4.80
2012,12,08,11,33,11.30
2012,12,08,11,34,9.60
2012,12,08,11,35,11.30
2012,12,08,11,36,11.30
2012,12,08,11,37,6.40
2012,12,08,11,38,6.40
2012,12,08,11,39,8.10
2012,12,08,11,40,9.60
2012,12,08,11,41,11.30
2012,12,08,11,42,8.10
2012,12,08,11,43,8.10
2012,12,08,11,44,8.10
2012,12,08,11,45,8.10
2012,12,08,11,46,8.10
2012,12,08,11,47,4.80
2012,12,08,11,48,11.30
2012,12,08,11,49,9.60
2012,12,08,11,50,9.60
2012,12,08,11,51,8.10
2012,12,08,11,52,8.10
2012,12,08,11,53,6.40
2012,12,08,11,54,6.40
2012,12,08,11,55,8.10
2012,12,08,11,56,9.60
2012,12,08,11,57,6.40
2012,12,08,11,58,8.10
2012,12,08,11,59,4.80
2012,12,08,12,00,4.80
2012,12,08,12,01,4.80
2012,12,08,12,02,3.20
2012,12,08,12,03,3.20
2012,12,08,12,04,3.20
2012,12,08,12,05,3.20
2012,12,08,12,06,4.80
2012,12,08,12,07,6.40
2012,12,08,12,08,4.80
2012,12,08,12,09,6.40
2012,12,08,12,10,4.80
2012,12,08,12,11,4.80
2012,12,08,12,12,4.80
2012,12,08,12,13,1.60
2012,12,08,12,14,1.60
2012,12,08,12,15,1.60
2012,12,08,12,16,1.60
2012,12,08,12,17,1.60
2012,12,08,12,18,4.80
2012,12,08,12,19,6.40
2012,12,08,12,20,6.40
2012,12,08,12,21,6.40
2012,12,08,12,22,4.80
2012,12,08,12,23,6.40
2012,12,08,12,24,6.40
2012,12,08,12,25,8.10
2012,12,08,12,26,4.80
2012,12,08,12,27,6.40
2012,12,08,12,28,4.80
2012,12,08,12,29,3.20
2012,12,08,12,30,3.20
2012,12,08,12,31,3.20
2012,12,08,12,32,6.40
2012,12,08,12,33,6.40
2012,12,08,12,34,6.40
2012,12,08,12,35,4.80
2012,12,08,12,36,6.40
2012,12,08,12,37,3.20
2012,12,08,12,38,4.80
2012,12,08,12,39,4.80
2012,12,08,12,40,3.20
2012,12,08,12,41,1.60
2012,12,08,12,42,4.80
2012,12,08,12,43,1.60
2012,12,08,12,44,1.60
2012,12,08,12,45,1.60
2012,12,08,12,46,1.60
2012,12,08,12,47,1.60
2012,12,08,12,48,4.80
2012,12,08,12,49,3.20
2012,12,08,12,50,6.40
2012,12,08,12,51,3.20
2012,12,08,12,52,4.80
2012,12,08,12,53,4.80
2012,12,08,12,54,6.40
2012,12,08,12,55,3.20
2012,12,08,12,56,3.20
2012,12,08,12,57,3.20
2012,12,08,12,58,4.80
2012,12,08,12,59,4.80
2012,12,08,13,00,8.10
2012,12,08,13,01,8.10
2012,12,08,13,02,6.40
2012,12,08,13,03,6.40
2012,12,08,13,04,3.20
2012,12,08,13,05,3.20
2012,12,08,13,06,4.80
2012,12,08,13,07,3.20
2012,12,08,13,08,6.40
2012,12,08,13,09,8.10
2012,12,08,13,10,8.10
2012,12,08,13,11,6.40
2012,12,08,13,12,4.80
2012,12,08,13,13,6.40
2012,12,08,13,14,3.20
2012,12,08,13,15,3.20
2012,12,08,13,16,6.40
2012,12,08,13,17,3.20
2012,12,08,13,18,9.60
2012,12,08,13,19,6.40
2012,12,08,13,20,6.40
2012,12,08,13,21,6.40
2012,12,08,13,22,8.10
2012,12,08,13,23,6.40
2012,12,08,13,24,3.20
2012,12,08,13,25,3.20
2012,12,08,13,26,3.20
2012,12,08,13,27,4.80
2012,12,08,13,28,3.20
2012,12,08,13,29,4.80
2012,12,08,13,30,6.40
2012,12,08,13,31,8.10
2012,12,08,13,32,6.40
2012,12,08,13,33,4.80
2012,12,08,13,34,4.80
2012,12,08,13,35,3.20
2012,12,08,13,36,6.40
2012,12,08,13,37,9.60
2012,12,08,13,38,9.60
2012,12,08,13,39,6.40
2012,12,08,13,40,4.80
2012,12,08,13,41,1.60
2012,12,08,13,42,1.60
2012,12,08,13,43,8.10
2012,12,08,13,44,3.20
2012,12,08,13,45,1.60
2012,12,08,13,46,4.80
2012,12,08,13,47,4.80
2012,12,08,13,48,3.20
2012,12,08,13,49,4.80
2012,12,08,13,50,3.20
2012,12,08,13,51,4.80
2012,12,08,13,52,1.60
2012,12,08,13,53,4.80
2012,12,08,13,54,6.40
2012,12,08,13,55,8.10
2012,12,08,13,56,6.40
2012,12,08,13,57,9.60
2012,12,08,13,58,4.80
2012,12,08,13,59,3.20
2012,12,08,14,00,3.20
2012,12,08,14,01,4.80
2012,12,08,14,02,4.80
2012,12,08,14,03,1.60
2012,12,08,14,04,6.40
2012,12,08,14,05,6.40
2012,12,08,14,06,4.80
2012,12,08,14,07,1.60
2012,12,08,14,08,3.20
2012,12,08,14,09,3.20
2012,12,08,14,10,3.20
2012,12,08,14,11,3.20
2012,12,08,14,12,3.20
2012,12,08,14,13,3.20
2012,12,08,14,14,3.20
2012,12,08,14,15,4.80
2012,12,08,14,16,4.80
2012,12,08,14,17,4.80
2012,12,08,14,18,3.20
2012,12,08,14,19,6.40
2012,12,08,14,20,8.10
2012,12,08,14,21,8.10
2012,12,08,14,22,4.80
2012,12,08,14,23,4.80
2012,12,08,14,24,1.60
2012,12,08,14,25,3.20
2012,12,08,14,26,1.60
2012,12,08,14,27,3.20
2012,12,08,14,28,1.60
2012,12,08,14,29,4.80
2012,12,08,14,30,4.80
2012,12,08,14,31,3.20
2012,12,08,14,32,6.40
2012,12,08,14,33,4.80
2012,12,08,14,34,4.80
2012,12,08,14,35,4.80
2012,12,08,14,36,3.20
2012,12,08,14,37,3.20
2012,12,08,14,38,4.80
2012,12,08,14,39,4.80
2012,12,08,14,40,4.80
2012,12,08,14,41,1.60
2012,12,08,14,42,3.20
2012,12,08,14,43,6.40
2012,12,08,14,44,6.40
2012,12,08,14,45,8.10
2012,12,08,14,46,6.40
2012,12,08,14,47,6.40
2012,12,08,14,48,3.20
2012,12,08,14,49,1.60
2012,12,08,14,50,4.80
2012,12,08,14,51,4.80
2012,12,08,14,52,3.20
2012,12,08,14,53,4.80
2012,12,08,14,54,3.20
2012,12,08,14,55,3.20
2012,12,08,14,56,4.80
2012,12,08,14,57,4.80
2012,12,08,14,58,3.20
2012,12,08,14,59,3.20
2012,12,08,15,00,3.20
2012,12,08,15,01,6.40
2012,12,08,15,02,6.40
2012,12,08,15,03,4.80
2012,12,08,15,04,1.60
2012,12,08,15,05,1.60
2012,12,08,15,06,4.80
2012,12,08,15,07,3.20
2012,12,08,15,08,3.20
2012,12,08,15,09,3.20
2012,12,08,15,10,1.60
2012,12,08,15,11,3.20
2012,12,08,15,13,4.80
2012,12,08,15,14,3.20
2012,12,08,15,15,1.60
2012,12,08,15,16,1.60
2012,12,08,15,17,4.80
2012,12,08,15,18,4.80
2012,12,08,15,19,1.60
2012,12,08,15,20,8.10
2012,12,08,15,21,6.40
2012,12,08,15,22,8.10
2012,12,08,15,23,9.60
2012,12,08,15,24,3.20
2012,12,08,15,25,6.40
2012,12,08,15,26,4.80
2012,12,08,15,27,6.40
2012,12,08,15,28,4.80
2012,12,08,15,29,1.60
2012,12,08,15,31,3.20
2012,12,08,15,32,4.80
2012,12,08,15,33,4.80
2012,12,08,15,34,1.60
2012,12,08,15,35,3.20
2012,12,08,15,36,8.10
2012,12,08,15,37,6.40
2012,12,08,15,38,6.40
2012,12,08,15,39,1.60
2012,12,08,15,40,3.20
2012,12,08,15,41,3.20
2012,12,08,15,42,4.80
2012,12,08,15,43,1.60
2012,12,08,15,45,3.20
2012,12,08,15,46,3.20
2012,12,08,15,47,3.20
2012,12,08,15,48,1.60
2012,12,08,15,49,1.60
2012,12,08,15,50,3.20
2012,12,08,15,51,1.60
2012,12,08,15,52,1.60
2012,12,08,15,54,1.60
2012,12,08,15,55,6.40
2012,12,08,15,56,6.40
2012,12,08,15,57,3.20
2012,12,08,15,58,3.20
2012,12,08,15,59,3.20
2012,12,08,16,00,3.20
2012,12,08,16,01,3.20
2012,12,08,16,02,1.60
2012,12,08,16,03,1.60
2012,12,08,16,04,1.60
2012,12,08,16,05,1.60
2012,12,08,16,07,3.20
2012,12,08,16,08,1.60
2012,12,08,16,09,3.20
2012,12,08,16,12,3.20
2012,12,08,16,13,3.20
2012,12,08,16,14,3.20
2012,12,08,16,15,1.60
2012,12,08,16,17,3.20
2012,12,08,16,18,1.60
2012,12,08,16,19,1.60
2012,12,08,16,20,3.20
2012,12,08,16,21,1.60
2012,12,08,16,23,1.60
2012,12,08,16,24,1.60
2012,12,08,16,25,3.20
2012,12,08,16,26,3.20
2012,12,08,16,27,4.80
2012,12,08,16,28,3.20
2012,12,08,16,29,6.40
2012,12,08,16,30,4.80
2012,12,08,16,31,3.20
2012,12,08,16,32,4.80
2012,12,08,16,33,4.80
2012,12,08,16,34,1.60
2012,12,08,16,38,3.20
2012,12,08,16,39,4.80
2012,12,08,16,41,1.60
2012,12,08,16,42,3.20
2012,12,08,16,43,1.60
2012,12,08,16,44,1.60
2012,12,08,16,46,1.60
2012,12,08,16,48,1.60
2012,12,08,16,49,3.20
2012,12,08,16,51,1.60
2012,12,08,16,52,3.20
2012,12,08,16,53,1.60
2012,12,08,16,54,1.60
2012,12,08,16,59,1.60
2012,12,08,17,01,1.60
2012,12,08,17,03,1.60
2012,12,08,17,05,1.60
2012,12,08,17,12,1.60
2012,12,08,17,13,1.60
2012,12,08,17,16,3.20
2012,12,08,17,18,1.60
2012,12,08,17,19,1.60
2012,12,08,17,20,1.60
2012,12,08,17,21,1.60
2012,12,08,17,28,3.20
2012,12,08,17,29,3.20
2012,12,08,17,30,3.20
2012,12,08,17,31,1.60
2012,12,08,17,32,1.60
2012,12,08,17,34,1.60
2012,12,08,17,40,1.60
2012,12,08,17,42,1.60
2012,12,08,17,43,1.60
2012,12,08,17,46,1.60
2012,12,08,17,48,3.20
2012,12,08,17,49,1.60
2012,12,08,17,50,1.60
2012,12,08,17,51,1.60
2012,12,08,17,52,1.60
2012,12,08,17,53,1.60
2012,12,08,17,54,1.60
2012,12,08,17,55,1.60
2012,12,08,17,56,1.60
2012,12,08,17,57,3.20
2012,12,08,17,58,3.20
2012,12,08,17,59,3.20
2012,12,08,18,00,3.20
2012,12,08,18,01,3.20
2012,12,08,18,02,3.20
2012,12,08,18,03,1.60
2012,12,08,18,04,1.60
2012,12,08,18,05,1.60
2012,12,08,18,06,1.60
2012,12,08,18,07,1.60
2012,12,08,18,08,3.20
2012,12,08,18,09,4.80
2012,12,08,18,10,3.20
2012,12,08,18,11,4.80
2012,12,08,18,12,4.80
2012,12,08,18,13,4.80
2012,12,08,18,14,3.20
2012,12,08,18,15,3.20
2012,12,08,18,16,4.80
2012,12,08,18,17,4.80
2012,12,08,18,18,3.20
2012,12,08,18,19,6.40
2012,12,08,18,20,4.80
2012,12,08,18,21,4.80
2012,12,08,18,22,4.80
2012,12,08,18,23,3.20
2012,12,08,18,24,4.80
2012,12,08,18,25,3.20
2012,12,08,18,26,4.80
2012,12,08,18,27,3.20
2012,12,08,18,28,3.20
2012,12,08,18,29,3.20
2012,12,08,18,30,3.20
2012,12,08,18,31,4.80
2012,12,08,18,32,4.80
2012,12,08,18,33,4.80
2012,12,08,18,34,4.80
2012,12,08,18,35,4.80
2012,12,08,18,36,3.20
2012,12,08,18,37,3.20
2012,12,08,18,38,1.60
2012,12,08,18,39,3.20
2012,12,08,18,40,3.20
2012,12,08,18,41,3.20
2012,12,08,18,42,3.20
2012,12,08,18,43,4.80
2012,12,08,18,44,4.80
2012,12,08,18,45,4.80
2012,12,08,18,46,4.80
2012,12,08,18,47,6.40
2012,12,08,18,48,4.80
2012,12,08,18,49,4.80
2012,12,08,18,50,3.20
2012,12,08,18,51,3.20
2012,12,08,18,52,1.60
2012,12,08,18,53,1.60
2012,12,08,18,54,3.20
2012,12,08,18,55,3.20
2012,12,08,18,56,3.20
2012,12,08,18,57,3.20
2012,12,08,18,58,4.80
2012,12,08,18,59,3.20
2012,12,08,19,00,4.80
2012,12,08,19,01,4.80
2012,12,08,19,02,3.20
2012,12,08,19,03,4.80
2012,12,08,19,04,3.20
2012,12,08,19,05,4.80
2012,12,08,19,06,3.20
2012,12,08,19,07,3.20
2012,12,08,19,08,1.60
2012,12,08,19,09,3.20
2012,12,08,19,10,3.20
2012,12,08,19,11,1.60
2012,12,08,19,12,1.60
2012,12,08,19,14,3.20
2012,12,08,19,15,3.20
2012,12,08,19,16,3.20
2012,12,08,19,17,4.80
2012,12,08,19,18,4.80
2012,12,08,19,19,3.20
2012,12,08,19,20,4.80
2012,12,08,19,21,3.20
2012,12,08,19,22,3.20
2012,12,08,19,23,4.80
2012,12,08,19,24,3.20
2012,12,08,19,25,4.80
2012,12,08,19,26,4.80
2012,12,08,19,27,3.20
2012,12,08,19,28,1.60
2012,12,08,19,29,3.20
2012,12,08,19,30,1.60
2012,12,08,19,31,3.20
2012,12,08,19,32,3.20
2012,12,08,19,33,3.20
2012,12,08,19,34,3.20
2012,12,08,19,35,3.20